Hourly Data Report for May 29, 2004

TORONTO CITY
ONTARIO

43°40'00.000" N
79°24'00.000" W
112.50 m
6158355
71508
XTO

Download Data

Hourly Data (May 2004)
Hourly Data Report for May 29, 2004
TIME
LST
Temp Definition
°C
Dew Point Definition
°C
Rel Hum Definition
%
Precip. Amount Definition
mm

Wind Dir Definition
10's deg

Wind Spd Definition
km/h
Visibility Definition
km
Stn Press Definition
kPa
Hmdx Definition


Wind Chill Definition


Weather Definition


00:00 8.1 1.7 64   LegendMM LegendMM LegendMM 100.14     LegendNANA
01:00 7.7 2.1 68   LegendMM LegendMM LegendMM 100.17     LegendNANA
02:00 7.1 2.0 70   LegendMM LegendMM LegendMM 100.21     LegendNANA
03:00 6.2 2.0 74   LegendMM LegendMM LegendMM 100.25     LegendNANA
04:00 6.7 2.0 72   LegendMM LegendMM LegendMM 100.30     LegendNANA
05:00 6.1 1.6 73   LegendMM LegendMM LegendMM 100.34     LegendNANA
06:00 7.4 2.2 70   LegendMM LegendMM LegendMM 100.39     LegendNANA
07:00 9.7 1.9 58   LegendMM LegendMM LegendMM 100.41     LegendNANA
08:00 12.0 1.2 48   LegendMM LegendMM LegendMM 100.49     LegendNANA
09:00 13.2 1.1 44   LegendMM LegendMM LegendMM 100.48     LegendNANA
10:00 13.8 4.1 52   LegendMM LegendMM LegendMM 100.49     LegendNANA
11:00 15.6 5.7 52   LegendMM LegendMM LegendMM 100.53     LegendNANA
12:00 15.7 0.8 36   LegendMM LegendMM LegendMM 100.49     LegendNANA
13:00 16.7 3.5 41   LegendMM LegendMM LegendMM 100.46     LegendNANA
14:00 16.7 3.2 40   LegendMM LegendMM LegendMM 100.42     LegendNANA
15:00 17.2 0.4 32   LegendMM LegendMM LegendMM 100.39     LegendNANA
16:00 17.4 2.1 36   LegendMM LegendMM LegendMM 100.34     LegendNANA
17:00 16.0 2.1 39   LegendMM LegendMM LegendMM 100.30     LegendNANA
18:00 15.4 5.3 51   LegendMM LegendMM LegendMM 100.29     LegendNANA
19:00 14.4 5.9 57   LegendMM LegendMM LegendMM 100.31     LegendNANA
20:00 13.2 6.0 62   LegendMM LegendMM LegendMM 100.35     LegendNANA
21:00 11.8 6.5 70   LegendMM LegendMM LegendMM 100.39     LegendNANA
22:00 12.7 3.6 54   LegendMM LegendMM LegendMM 100.41     LegendNANA
23:00 12.4 1.2 46   LegendMM LegendMM LegendMM 100.42     LegendNANA

Notes on Data Quality.

Legend

  • E = Estimated
  • M = Missing
  • NA = Not Available*
  • [empty] = Indicates an unobserved value
Date modified: